Flag for U.S.A. Weather past 2 weeks in Philadelphia, Pennsylvania, U.S.A.

Now
59 °F

Overcast.


Feels Like: 57 °F
Forecast: 52 / 63 °F
Wind: 9 mph from Southwest

Location: Philadelphia International Airport

Current Time: Apr 21, 2015 at 6:15:41 AM

Latest Report: Apr 21, 2015 at 5:54 AM


Visibility: 8 mi

Pressure: 29.62 "Hg

Humidity: 93%

Dew point: 57 °F

Location of PhiladelphiaLocation

Historic Weather in Philadelphia — Graph

°F

Philadelphia temperature yesterday

Maximum temperature yesterday: 76 °F (at 3:54 PM)
Minimum temperature yesterday: 50 °F (at 12:54 AM)
Average temperature yesterday: 63 °F

Past Weeks' High & Low Weather Summary

 TemperatureHumidityPressure
High80 °F (Apr 18, 3:54 PM)97% (Apr 10, 10:01 AM)30.46 "Hg (Apr 10, 10:01 AM)
Low39 °F (Apr 8, 11:54 PM)14% (Apr 15, 2:54 PM)29.54 "Hg (Apr 21, 12:54 AM)
Average57 °F61%30.13 "Hg
* Reported Apr 6 4:54 AM — Apr 21 4:54 AM, Philadelphia, Weather by CustomWeather, © 2015

Note: Actual official high and low records may vary slightly from our data, if they occured in-between our weather recording intervals... More about our weather records

Advertising

Philadelphia weather history for previous 24 hours

 ConditionsComfort  
Time TempWeatherWind HumidityBarometerVisibility
4:54 AM
Tue, Apr 21
59 °FLight rain. Fog.5 mph93%29.59 "Hg5 mi
3:54 AM60 °FLight rain. Overcast.No wind90%29.59 "Hg7 mi
2:54 AM61 °FLight rain. Overcast.No wind87%29.59 "Hg8 mi
1:58 AM61 °FLight rain. Overcast.6 mph87%29.56 "Hg8 mi
12:54 AM61 °FLight rain. Overcast.7 mph83%29.54 "Hg9 mi
11:54 PM
Mon, Apr 20
63 °FLight rain. Mostly cloudy.18 mph78%29.58 "Hg9 mi
10:54 PM68 °FPartly cloudy.13 mph76%29.55 "Hg10 mi
9:54 PM68 °FPartly cloudy.7 mph78%29.55 "Hg10 mi
8:54 PM69 °FPartly cloudy.12 mph76%29.57 "Hg10 mi
7:54 PM70 °FBroken clouds.12 mph73%29.57 "Hg10 mi
6:54 PM73 °FBroken clouds.12 mph66%29.58 "Hg10 mi
5:54 PM74 °FBroken clouds.10 mph64%29.58 "Hg10 mi
4:54 PM75 °FBroken clouds.8 mph62%29.59 "Hg10 mi
3:54 PM76 °FBroken clouds.6 mph64%29.59 "Hg10 mi
2:54 PM72 °FScattered clouds.5 mph71%29.61 "Hg10 mi
1:54 PM68 °FBroken clouds.8 mph78%29.64 "Hg10 mi
12:54 PM66 °FBroken clouds.7 mph90%29.65 "Hg8 mi
11:54 AM62 °FFog.No wind93%29.67 "Hg4 mi
10:54 AM60 °FDrizzle. Fog.5 mph96%29.68 "Hg3 mi
9:54 AM59 °FLight rain. Fog.9 mph93%29.69 "Hg2 mi
8:54 AM58 °FRain. Fog.9 mph93%29.71 "Hg1 mi
8:04 AM58 °FHeavy rain. Fog.7 mph93%29.74 "Hg1 mi
7:56 AM58 °FHeavy rain. Fog.6 mph93%29.76 "Hg1 mi
6:54 AM57 °FRain. Fog.16 mph93%29.75 "Hg2 mi
Weather by CustomWeather, © 2015

See weather overviewHow to use our weather pages